Regional Weather Roundup
Issued by NWS Grand Forks, ND

Home | Current Version | Previous Version | Graphics & Text | Print | Product List | Glossary On
Versions: 1 2 3 4 5 6 7 8 9 10 11 12 13 14 15 16 17 18 19 20 21 22 23 24 25 26 27 28 29 30 31 32 33 34 35 36 37 38 39 40 41 42 43 44 45 46 47 48 49 50
000
ASUS43 KFGF 182110
RWRFGF
PRAIRIE TO PINES  WEATHER ROUNDUP
NATIONAL WEATHER SERVICE EASTERN NORTH DAKOTA/GRAND FORKS ND
400 PM CDT FRI AUG 18 2017

 **SATELLITE DATA USED TO AUGMENT SKY COVER AT AUTOMATED STATIONS**
 *****  WEATHER ACROSS EASTERN NORTH DAKOTA  *****

CITY           SKY/WX    TMP DP  RH WIND       PRES   REMARKS
GRAND FORKS    FAIR      82  60  47 NW6       29.83F
GRAND FRKS AFB FAIR      81  59  46 W6        29.84F
DEVILS LAKE    FAIR      78  53  41 NW12      29.89F
FARGO          FAIR      78  64  61 W12       29.86R
WAHPETON ARPT  FAIR      72  54  53 CALM      29.88S
$$

 ***** WEATHER ACROSS CENTRAL AND WESTERN NORTH DAKOTA  *****

CITY           SKY/WX    TMP DP  RH WIND       PRES   REMARKS
BISMARCK       FAIR      83  53  35 NW10G18   29.94F
MINOT          FAIR      83  48  29 NW13      29.90S
JAMESTOWN      FAIR      75  60  59 W7        29.91F
MINOT AFB      FAIR      82  44  25 NW13G18   29.88S
GARRISON         N/A     80  50  34 NW9G23    29.92F
WILLISTON      FAIR      83  52  34 S9        29.91F
DICKINSON      FAIR      83  47  28 NW6       29.95F
HETTINGER      FAIR      82  46  28 W8        29.98F
$$

 *****  OTHER AIRPORT OBSERVATIONS IN OUR AREA  *****

CITY           SKY/WX    TMP DP  RH WIND       PRES   REMARKS
WALHALLA       FAIR      81  81 100 NW10      29.83S HX  91
GRAFTON AIRPOR FAIR      81  55  41 NW12      29.84F
VALLEY CITY AR   N/A     75  64  69 W9        29.92R
CANDO          FAIR      81  52  36 NW8       29.90S
CAVALIER APRT  FAIR      81  55  41 W10       29.82F
GWINNER        CLEAR     75  57  53 CALM      29.89F
SHEYENNE NWR     N/A     76  62  60 NW7       29.95S
ROLLA          FAIR      79  54  41 NW8G14    29.90S
 ***** THE ABOVE OBSERVATIONS ARE NON NWS ARE NOT QUALITY
       CONTROLLED AND MAY MIS-REPORT RAIN FOR SNOW...
$$

  *****  WEATHER ACROSS NORTHERN MINNESOTA  *****

CITY           SKY/WX    TMP DP  RH WIND       PRES   REMARKS
FLAG ISLAND    FAIR      81  54  39 CALM      29.77F
WARROAD        FAIR      79  63  57 W8        29.81F
ROSEAU         FAIR      79  61  53 W9G16     29.81S
HALLOCK        FAIR      82  46  28 NW16      29.81S
THF RVR FALLS  PTSUNNY   77  53  43 W14       29.85S
BAUDETTE       FAIR      79  58  48 N9        29.80F
WASKISH        CLOUDY    75  61  60 SW7       29.81F THUNDER
CROOKSTON      FAIR      81  54  39 NW10      29.84S
STEPHEN NDAWN    N/A     82  55  39 NW12        N/A
GREENBUSH NDAW   N/A     81  55  41 NW8         N/A
$$
  *****  WEATHER ACROSS CENTRAL AND WEST MINNESOTA  *****

CITY           SKY/WX    TMP DP  RH WIND       PRES   REMARKS
FOSSTON        LGT RAIN  70  59  68 W8        29.87R
BEMIDJI        FAIR      77  55  45 W6        29.85R
PARK RAPIDS    TSTM      61  56  83 SW13      29.90R
ELBOW LAKE     CLOUDY    68  62  83 E5        29.89S HAZE
WADENA         FAIR      72  55  56 SW7       29.89S
DETROIT LAKES  FAIR      72  55  56 SW5       29.90R
MOORHEAD       FAIR      77  61  57 W6        29.87R
FERGUS FALLS   FAIR      72  61  68 CALM      29.87F
MORRIS MN      FAIR      72  64  78 NE7       29.87F
STAPLES        FAIR      70  54  56 SW9       29.89S
$$
  *****  WEATHER ELSEWHERE ACROSS MINNESOTA  *****

CITY           SKY/WX    TMP DP  RH WIND       PRES   REMARKS
DULUTH         FAIR      69  60  73 W7        29.85F
INTRNTL FALLS  FAIR      78  56  46 NW9       29.79F
ELY            FAIR      73  55  53 W8        29.82F
CLOQUET        FAIR      72  59  64 W3        29.85F
WHEATON        FAIR      70  59  68 N3        29.89F
BRAINERD       TSTM      60  54  80 N9G20     29.91R
HIBBING        FAIR      73  57  57 W6        29.83F
ALEXANDRIA     CLOUDY    66  60  81 CALM      29.90F
SAINT CLOUD    FAIR      75  61  61 SW10      29.87F
MINNEAPOLIS    CLOUDY    73  62  68 W8        29.89F
$$

  *****  WEATHER ACROSS SOUTH DAKOTA  *****

CITY           SKY/WX    TMP DP  RH WIND       PRES   REMARKS
SIOUX FALLS    PTSUNNY   79  65  62 SW7       29.89F
BROOKINGS      PTSUNNY   78  62  57 W16G24    29.87F
WATERTOWN      PTSUNNY   73  61  65 W15G26    29.85F
HURON          FAIR      77  61  57 NW21      29.90S
SISSETON         N/A     71  64  78 NE10      29.88R
ABERDEEN       FAIR      77  59  53 N13G22    29.91S
MITCHELL       FAIR      82  61  48 NW13      29.90S
PIERRE         FAIR      83  49  30 N13G26    29.94F
MOBRIDGE       FAIR      82  58  43 N6        29.93F
RAPID CITY     FAIR      86  41  20 CALM      30.02S
$$

  *****  SOME WEATHER IN NEARBY STATES *****

CITY           SKY/WX    TMP DP  RH WIND       PRES   REMARKS
GLASGOW MT     FAIR      88  36  15 SW7       29.88F
GREAT FALLS MT FAIR      89  26  10 SW13G24   29.95F
CHEYENNE WY    FAIR      84  34  16 VRB7      30.20F
SCOTTSBLUFF NE FAIR      88  38  17 N7        30.08F
OMAHA NE       FAIR      88  62  41 NW10      29.89F
DES MOINES IA  FAIR      86  63  45 NW9       29.86S
DAVENPORT IA   FAIR      80  63  55 SW8       29.90F
CHICAGO IL     FAIR      82  59  45 W13       29.84F
EAU CLAIRE WI  FAIR      70  62  76 W12       29.87S
LA CROSSE WI   CLOUDY    73  63  70 W8        29.89S
$$

  *****  SOME NATIONAL WEATHER *****

CITY           SKY/WX    TMP DP  RH WIND       PRES   REMARKS
LA GUARDIA NY  PTSUNNY   82  77  84 S14       29.77F HX  90
RALEIGH NC     PTSUNNY   94  73  50 S8        29.84F HX 103
ATLANTA GA     FAIR      89  68  49 W9G17     29.96F HX  93
NEW ORLEANS LA FAIR      93  72  50 N6        29.98F HX 101
OKLAHOMA CITY  FAIR      90  69  50 S10       29.97F HX  94
ALBUQUERQUE NM FAIR      90  31  12 VRB6G17   30.18F
SALT LAKE CITY FAIR      91  39  16 NW13      30.12F
LOS ANGELES CA FAIR      74  63  68 W14       29.99F
BOISE ID       FAIR      89  36  15 NW10G16   30.06F
SEATTLE WA     FAIR      68  54  60 S7        30.19S
$$

*** WEATHER ACROSS MANITOBA...SASKATCHEWAN AND ONTARIO ***
                ***ONTARIO***

CITY           SKY/WX    TMP DP  RH WIND       PRES   REMARKS
GERALDTON      PTSUNNY   64  57  77 N8        29.75S
THUNDER BAY    CLOUDY    73  54  49 NW8       29.77S
SIOUX LOOKOUT  PTSUNNY   77  54  44 W7        29.75F
TORONTO        PTSUNNY   75  64  69 W17G29    29.70R
BIG TROUT LK   SUNNY     77  57  50 SW7       29.65F
PICKLE LAKE    PTSUNNY   73  54  49 W14       29.73S THUNDER
DRYDEN         PTSUNNY   72  59  64 S5        29.77F
KENORA         PTSUNNY   77  54  44 W8        29.78F
$$
                *** MANITOBA***

CITY           SKY/WX    TMP DP  RH WIND       PRES   REMARKS
BRANDON        MOSUNNY   81  52  36 NW9G17    29.85F
DAUPHIN        SUNNY     82  52  34 W10       29.80F
ISLAND LAKE    PTSUNNY   75  50  41 W6        29.69S
PILOT MOUND      N/A     77  48  36 W10         N/A
THE PAS        PTSUNNY   81  50  34 W14       29.71F
THOMPSON       PTSUNNY   75  54  46 W14G23    29.64F
WINNIPEG       MOSUNNY   81  50  34 NW14G20   29.79F
LYNN LAKE      SUNNY     73  52  46 MISG      29.67S
CHURCHILL      PTSUNNY   64  55  72 N12       29.59S
GILLAM         PTSUNNY   70  57  64 W13       29.60F
$$
                ***SASKATCHEWAN***

CITY           SKY/WX    TMP DP  RH WIND       PRES   REMARKS
ESTEVAN        MOSUNNY   82  48  30 W12G21    29.90F
KINDERSLEY     PTSUNNY   86  45  23 S12G18    29.78F
LLOYDMINSTER   PTSUNNY   75  55  50 S7        29.78F
PRINCE ALBERT  MOSUNNY   81  50  34 SW6       29.80F
REGINA         MOSUNNY   82  41  23 SW7       29.87F
YORKTON        MOSUNNY   77  50  38 W8        29.85F
N. BATTLEFORD  SUNNY     79  50  36 S9G17     29.81F
LA RONGE       PTSUNNY   79  55  44 NW9       29.72F
SASKATOON      MOSUNNY   79  46  31 W9        29.83F
SWIFT CURRENT  SUNNY     86  39  19 SW10G25   29.82F
$$
NOTE: THESE ARE AUTOMATED STATIONS WITH LIMITED QUALITY CONTROL
      "FAIR" INDICATES FEW OR NO CLOUDS BELOW 12,000 FEET WITH NO
      SIGNIFICANT WEATHER AND/OR OBSTRUCTIONS TO VISIBILITY.
      SKY/WX - SKY CONDITION AND SIGNIFICANT WEATHER.
      TMP - AIR TEMPERATURE.    DP   - DEWPOINT TEMPERATURE.
      RH  - RELATIVE HUMIDITY.  PRES - PRESSURE.
      HX  - HEAT INDEX.         WCI  - WIND CHILL INDEX.
$




USA.gov is the U.S. government's official web portal to all federal, state and local government web resources and services.